Regional Weather Roundup
Issued by NWS

Home | Current Version | Previous Version | Text Only | Print | Product List | Glossary Off
Versions: 1 2 3 4 5 6 7 8 9 10 11 12 13 14 15 16 17 18 19 20 21 22 23 24 25 26 27 28 29 30 31 32 33 34 35 36 37 38 39 40 41 42 43 44 45 46 47 48 49 50

000
ASUS43 KLSX 200407
RWRMO

WEATHER SUMMARY FOR MISSOURI
NATIONAL WEATHER SERVICE SPRINGFIELD MO
1100 PM CDT TUE SEP 19 2017

NOTE: "FAIR" INDICATES FEW OR NO CLOUDS BELOW 12,000 FEET WITH NO
       SIGNIFICANT WEATHER AND/OR OBSTRUCTIONS TO VISIBILITY.
       CURRENT SKY AND/OR WEATHER CONDITIONS ARE NOT AVAILABLE FOR
       CHILLICOTHE AND FARMINGTON.

MOZ001>031-035>038-043-044-053-054-200500-
...NORTHERN AND WESTERN MISSOURI...

CITY           SKY/WX    TMP DP  RH WIND       PRES   REMARKS
KANSAS CTY INT PTCLDY    79  68  69 S20G28    29.74R
KANSAS C DTWN  CLEAR     82  69  64 S18G28    29.73S
LEE`S SUMMIT   CLEAR     79  68  69 S17G25    29.76R
ST JOSEPH      CLEAR     79  70  74 S14G23    29.71R
CHILLICOTHE      N/A     77  69  76 SE6       29.76R
KIRKSVILLE     CLEAR     73  67  81 SE10      29.81S

$$
MOZ066>068-077>081-088>096-101>105-200500-
...SOUTHWEST MISSOURI...

CITY           SKY/WX    TMP DP  RH WIND       PRES   REMARKS
SPRINGFIELD    CLEAR     77  67  71 S12       29.86S HAZE
JOPLIN         CLEAR     76  70  82 S9        29.83R
BRANSON        PTCLDY    73  66  78 SE6       29.91S

$$
MOZ032>034-039>042-045>050-055>058-069>072-200500-
...CENTRAL MISSOURI...

CITY           SKY/WX    TMP DP  RH WIND       PRES   REMARKS
COLUMBIA       CLEAR     74  67  78 S9        29.84R
JEFFERSON CITY CLEAR     76  66  71 SE8       29.82S
ROLLA          CLEAR     76  66  71 S12       29.88S
SEDALIA        CLEAR     76  70  82 S13       29.82R
WHITEMAN AFB   PTCLDY    76  75  99 S10       29.78R
WARRENSBURG    CLEAR     73  66  78 SE9       29.78R
OSAGE BEACH    CLEAR     76  66  71 S6        29.85S

$$
MOZ051-052-059>065-200500-
...EAST CENTRAL MISSOURI...

CITY           SKY/WX    TMP DP  RH WIND       PRES   REMARKS
ST LOUIS INTL  CLEAR     80  68  66 S12       29.88S
SPIRIT OF STL  CLEAR     77  69  76 SE3       29.86R
ST CHARLES     CLEAR     70  67  90 E3        29.86S

$$
MOZ072>076-082>087-097>100-106>115-200500-
...SOUTH CENTRAL AND SOUTHEAST MISSOURI...

CITY           SKY/WX    TMP DP  RH WIND       PRES   REMARKS
CAPE GIRARDEAU CLEAR     75  69  81 S8        29.90R
FARMINGTON     CLEAR     73  67  81 CALM      29.91S
POPLAR BLUFF   CLEAR     71  68  90 CALM      29.89R
WEST PLAINS    CLEAR     75  68  78 S6        29.93R

$$



USA.gov is the U.S. government's official web portal to all federal, state and local government web resources and services.